Weather History for Huntsville Madison, AL

Change the Weather History Date:

Saturday, June 15, 2013

  Actual Average (KHSV) Record (KHSV)
Temperature  
Mean Temperature 72 °F 78 °F  
Max Temperature 87 °F 88 °F 101 °F (1936)
Min Temperature 57 °F 67 °F 52 °F (1933)
Degree Days  
Heating Degree Days 0 0  
Month to date heating degree days 0  
Since 1 June heating degree days 0  
Since 1 July heating degree days 3001  
Cooling Degree Days 7 13  
Month to date cooling degree days 169  
Year to date cooling degree days 432  
Since 1 June cooling degree days 169  
Growing Degree Days 22 (Base 50)    
Moisture  
Dew Point 55 °F    
Average Humidity 57    
Maximum Humidity 88    
Minimum Humidity 27    
Precipitation  
Precipitation 0.00 in 0.14 in 3.28 in (1983)
Month to date precipitation 2.11  
Year to date precipitation 26.48  
Snow  
Snow 0.00 in - - ()
Month to date snowfall  
Since 1 June snowfall  
Since 1 July snowfall  
Snow Depth -    
Sea Level Pressure  
Sea Level Pressure 30.07 in    
Wind  
Wind Speed 2 mph (South)    
Max Wind Speed 10 mph    
Max Gust Speed 16 mph    
Visibility 10 miles    
Events      
T = Trace of Precipitation, MM = Missing Value Source: NWS Daily Summary

Daily Weather History Graph

Daily Weather History Graph

Search for Another Location

Airport:

Trip Planner

Search our weather history database for the weather conditions in past years. The results will help you decide how hot, cold, wet, or windy it might be!

Date:

Astronomy

Jun. 15, 2013 Rise Set
Actual Time 5:32 AM CDT 8:01 PM CDT
Civil Twilight 5:02 AM CDT 8:31 PM CDT
Nautical Twilight 4:25 AM CDT 9:07 PM CDT
Astronomical Twilight 3:45 AM CDT 9:48 PM CDT
Moon 11:52 AM CDT (6/15) No Moon Set
Length of Visible Light 15h 28m
Length of Day
14h 29m
Waxing Crescent, 40% of the Moon is Illuminated
Jun 15
Waxing Crescent
Jun 16
First Quarter
Jun 23
Full
Jun 29
Last Quarter
Jul 8
New

Hourly Weather History & Observations

Time (CDT) Temp. Heat Index Dew Point Humidity Pressure Visibility Wind Dir Wind Speed Gust Speed Precip Events Conditions
12:15 AM 64.4 °F - 57.2 °F 77% 30.05 in 10.0 mi Calm Calm - N/A   Clear
12:35 AM 62.6 °F - 57.2 °F 82% 30.04 in 10.0 mi Calm Calm - N/A   Clear
12:55 AM 62.6 °F - 55.4 °F 77% 30.04 in 10.0 mi Calm Calm - N/A   Clear
1:15 AM 60.8 °F - 55.4 °F 82% 30.04 in 10.0 mi Calm Calm - N/A   Clear
1:35 AM 60.8 °F - 55.4 °F 82% 30.05 in 10.0 mi Calm Calm - N/A   Clear
1:55 AM 60.8 °F - 55.4 °F 82% 30.04 in 10.0 mi Calm Calm - N/A   Clear
2:15 AM 60.8 °F - 55.4 °F 82% 30.04 in 10.0 mi Calm Calm - N/A   Clear
2:35 AM 59.0 °F - 55.4 °F 88% 30.04 in 10.0 mi Calm Calm - N/A   Clear
2:55 AM 59.0 °F - 55.4 °F 88% 30.03 in 10.0 mi Calm Calm - N/A   Clear
3:15 AM 59.0 °F - 55.4 °F 88% 30.04 in 10.0 mi Calm Calm - N/A   Clear
3:35 AM 59.0 °F - 55.4 °F 88% 30.04 in 10.0 mi Calm Calm - N/A   Clear
3:55 AM 57.2 °F - 53.6 °F 88% 30.06 in 10.0 mi Calm Calm - N/A   Clear
4:15 AM 59.0 °F - 53.6 °F 82% 30.06 in 10.0 mi Calm Calm - N/A   Clear
4:35 AM 60.8 °F - 55.4 °F 82% 30.05 in 10.0 mi Calm Calm - N/A   Clear
4:55 AM 59.0 °F - 53.6 °F 82% 30.06 in 10.0 mi Calm Calm - N/A   Clear
5:15 AM 59.0 °F - 53.6 °F 82% 30.07 in 10.0 mi Calm Calm - N/A   Clear
5:35 AM 59.0 °F - 53.6 °F 82% 30.07 in 10.0 mi Calm Calm - N/A   Clear
5:55 AM 59.0 °F - 55.4 °F 88% 30.07 in 10.0 mi Calm Calm - N/A   Clear
6:15 AM 59.0 °F - 55.4 °F 88% 30.08 in 10.0 mi Calm Calm - N/A   Clear
6:35 AM 59.0 °F - 55.4 °F 88% 30.09 in 10.0 mi Calm Calm - N/A   Clear
6:55 AM 60.8 °F - 55.4 °F 82% 30.09 in 10.0 mi Calm Calm - N/A   Clear
7:15 AM 62.6 °F - 57.2 °F 82% 30.10 in 10.0 mi Calm Calm - N/A   Clear
7:35 AM 64.4 °F - 57.2 °F 77% 30.10 in 10.0 mi Calm Calm - N/A   Clear
7:55 AM 64.4 °F - 59.0 °F 83% 30.11 in 10.0 mi Calm Calm - N/A   Clear
8:15 AM 68.0 °F - 59.0 °F 73% 30.12 in 10.0 mi Calm Calm - N/A   Clear
8:35 AM 71.6 °F - 59.0 °F 64% 30.12 in 10.0 mi Calm Calm - N/A   Clear
8:55 AM 71.6 °F - 57.2 °F 60% 30.11 in 10.0 mi Calm Calm - N/A   Clear
9:15 AM 73.4 °F - 53.6 °F 50% 30.11 in 10.0 mi SE 3.5 mph - N/A   Clear
9:35 AM 75.2 °F - 55.4 °F 50% 30.11 in 10.0 mi ESE 3.5 mph - N/A   Clear
9:55 AM 78.8 °F - 55.4 °F 44% 30.11 in 10.0 mi South 3.5 mph - N/A   Clear
10:15 AM 78.8 °F - 53.6 °F 42% 30.11 in 10.0 mi SSW 10.4 mph - N/A   Clear
10:35 AM 78.8 °F - 53.6 °F 42% 30.12 in 10.0 mi South 10.4 mph - N/A   Clear
10:55 AM 80.6 °F - 51.8 °F 37% 30.12 in 10.0 mi South 10.4 mph - N/A   Clear
11:15 AM 82.4 °F 81.7 °F 55.4 °F 39% 30.11 in 10.0 mi WSW 5.8 mph - N/A   Clear
11:35 AM 82.4 °F - 50.0 °F 32% 30.12 in 10.0 mi SSE 6.9 mph - N/A   Clear
11:55 AM 82.4 °F - 51.8 °F 35% 30.11 in 10.0 mi SSE 4.6 mph - N/A   Clear
12:15 PM 82.4 °F - 51.8 °F 35% 30.11 in 10.0 mi SSE 4.6 mph - N/A   Scattered Clouds
12:35 PM 82.4 °F 81.4 °F 53.6 °F 37% 30.10 in 10.0 mi SSW 8.1 mph - N/A   Scattered Clouds
12:55 PM 82.4 °F - 51.8 °F 35% 30.09 in 10.0 mi Calm Calm - N/A   Scattered Clouds
1:15 PM 84.2 °F - 51.8 °F 33% 30.09 in 10.0 mi SSW 3.5 mph - N/A   Scattered Clouds
1:35 PM 84.2 °F - 51.8 °F 33% 30.08 in 10.0 mi SW 3.5 mph - N/A   Scattered Clouds
1:55 PM 86.0 °F - 48.2 °F 27% 30.07 in 10.0 mi SE 3.5 mph - N/A   Scattered Clouds
2:15 PM 84.2 °F - 50.0 °F 30% 30.07 in 10.0 mi South 3.5 mph - N/A   Mostly Cloudy
2:35 PM 86.0 °F - 50.0 °F 29% 30.07 in 10.0 mi South 5.8 mph - N/A   Mostly Cloudy
2:55 PM 86.0 °F - 50.0 °F 29% 30.06 in 10.0 mi SE 3.5 mph - N/A   Scattered Clouds
3:15 PM 87.8 °F - 50.0 °F 27% 30.05 in 10.0 mi South 9.2 mph 16.1 mph N/A   Scattered Clouds
3:35 PM 86.0 °F - 50.0 °F 29% 30.05 in 10.0 mi South 9.2 mph - N/A   Scattered Clouds
3:55 PM 86.0 °F - 50.0 °F 29% 30.05 in 10.0 mi South 9.2 mph - N/A   Scattered Clouds
4:15 PM 87.8 °F - 51.8 °F 29% 30.05 in 10.0 mi SSE 8.1 mph - N/A   Scattered Clouds
4:35 PM 86.0 °F - 51.8 °F 31% 30.05 in 10.0 mi SSW 8.1 mph - N/A   Scattered Clouds
4:55 PM 86.0 °F - 51.8 °F 31% 30.04 in 10.0 mi SSW 6.9 mph - N/A   Scattered Clouds
5:15 PM 86.0 °F - 50.0 °F 29% 30.05 in 10.0 mi South 8.1 mph - N/A   Scattered Clouds
5:35 PM 86.0 °F - 51.8 °F 31% 30.04 in 10.0 mi SSE 8.1 mph - N/A   Clear
5:55 PM 86.0 °F 84.2 °F 53.6 °F 33% 30.04 in 10.0 mi SSE 5.8 mph - N/A   Scattered Clouds
6:15 PM 86.0 °F 84.2 °F 53.6 °F 33% 30.04 in 10.0 mi SSE 5.8 mph - N/A   Scattered Clouds
6:35 PM 86.0 °F 84.2 °F 53.6 °F 33% 30.04 in 10.0 mi SSE 6.9 mph - N/A   Scattered Clouds
6:55 PM 84.2 °F 82.8 °F 53.6 °F 35% 30.03 in 10.0 mi SSE 5.8 mph - N/A   Clear
7:15 PM 82.4 °F 81.4 °F 53.6 °F 37% 30.04 in 10.0 mi SE 3.5 mph - N/A   Clear
7:35 PM 82.4 °F 81.7 °F 55.4 °F 39% 30.04 in 10.0 mi SSE 3.5 mph - N/A   Clear
7:55 PM 80.6 °F 80.5 °F 55.4 °F 42% 30.05 in 10.0 mi SSE 3.5 mph - N/A   Clear
8:15 PM 80.6 °F 80.5 °F 55.4 °F 42% 30.05 in 10.0 mi SSE 3.5 mph - N/A   Clear
8:35 PM 78.8 °F - 55.4 °F 44% 30.06 in 10.0 mi Calm Calm - N/A   Clear
8:55 PM 78.8 °F - 57.2 °F 47% 30.06 in 10.0 mi Calm Calm - N/A   Clear
9:15 PM 77.0 °F - 59.0 °F 54% 30.06 in 10.0 mi Calm Calm - N/A   Clear
9:35 PM 71.6 °F - 60.8 °F 69% 30.07 in 10.0 mi Calm Calm - N/A   Clear
9:55 PM 71.6 °F - 60.8 °F 69% 30.07 in 10.0 mi Calm Calm - N/A   Clear
10:15 PM 71.6 °F - 60.8 °F 69% 30.08 in 10.0 mi Calm Calm - N/A   Clear
10:35 PM 71.6 °F - 60.8 °F 69% 30.07 in 10.0 mi Calm Calm - N/A   Clear
10:55 PM 69.8 °F - 60.8 °F 73% 30.07 in 10.0 mi Calm Calm - N/A   Clear
11:15 PM 69.8 °F - 60.8 °F 73% 30.08 in 10.0 mi Calm Calm - N/A   Clear
11:35 PM 68.0 °F - 62.6 °F 83% 30.09 in 10.0 mi Calm Calm - N/A   Clear
11:55 PM 69.8 °F - 60.8 °F 73% 30.09 in 10.0 mi Calm Calm - N/A   Clear